20050117,000025,1125403,33.483418,-122.537225,25.0,13.649,33.015,39.475,378.65,0.0,3.143,-0.243,13.267, NaN,24.725,   NaN,13.06,1023.87,92.74,13.44,8.8,9.6,10.0,10.4,336.1,336.9,9.4,9.8,NaN, NaN,15.2,282.4,309.7,1105920026,1105920026,1,1.3,000025,000026,324.6,33.483306,-122.537183,-0.16,NaN,NaN,13.652, NaN,NaN,NaN, NaN, NaN
20050117,000054,1125432,33.483530,-122.537360,25.0,13.651,33.014,39.476,920.91,0.0,3.407,-0.237,13.267, NaN,24.724,   NaN,13.07,1023.85,92.83,13.43,12.3,11.5,10.1,10.7,338.6,337.7,9.6,10.2,NaN, NaN,16.2,1.9,332.4,1105920055,1105920055,1,1.0,000055,000055,323.7,33.483418,-122.537313,-0.24,NaN,NaN,13.654, NaN,NaN,NaN, NaN, NaN
20050117,000125,1125464,33.483626,-122.537496,25.0,13.652,33.015,39.478,1410.01,0.0,3.294,-0.229,13.269, NaN,24.724,   NaN,13.00,1023.85,92.59,13.37,14.4,15.3,10.7,11.3,338.8,339.7,10.1,10.8,NaN, NaN,15.0,313.4,300.9,1105920086,1105920086,1,1.1,000085,000086,320.2,33.483521,-122.537443,-0.21,NaN,NaN,13.655, NaN,NaN,NaN, NaN, NaN
20050117,000155,1125493,33.483690,-122.537625,25.0,13.654,33.013,39.478,1525.50,0.0,3.426,-0.227,13.270, NaN,24.722,   NaN,13.01,1023.84,92.89,13.38,14.8,16.4,10.9,11.5,337.7,339.2,10.4,11.1,NaN, NaN,15.3,347.3,314.7,1105920116,1105920116,1,1.0,000116,000116,322.9,33.483573,-122.537573,-0.40,NaN,NaN,13.657, NaN,NaN,NaN, NaN, NaN
20050117,000225,1125523,33.483746,-122.537738,24.8,13.655,33.013,39.479,776.57,0.0,3.388,-0.230,13.269, NaN,24.723,   NaN,13.00,1023.79,92.85,13.36,11.6,13.7,11.0,11.7,336.6,338.6,10.7,11.4,NaN, NaN,15.0,251.0,293.9,1105920146,1105920146,1,1.4,000146,000146,327.4,33.483626,-122.537695,-0.45,NaN,NaN,13.658, NaN,NaN,NaN, NaN, NaN
20050117,000256,1125555,33.483801,-122.537821,25.1,13.657,33.015,39.482,336.40,0.0,3.313,-0.232,13.271, NaN,24.724,   NaN,12.95,1023.77,92.87,13.32,8.6,11.6,11.5,11.8,337.6,340.7,11.3,11.5,NaN, NaN,15.9,41.0,325.6,1105920176,1105920176,1,0.8,000176,000176,329.2,33.483681,-122.537780,-0.28,NaN,NaN,13.660, NaN,NaN,NaN, NaN, NaN
20050117,000325,1125584,33.483858,-122.537918,24.9,13.657,33.016,39.483,549.91,0.0,3.294,-0.227,13.270, NaN,24.724,   NaN,12.92,1023.80,92.88,13.31,11.2,13.2,11.6,11.7,339.7,341.8,11.3,11.4,NaN, NaN,16.0,203.1,279.5,1105920206,1105920206,1,1.0,000206,000206,323.5,33.483745,-122.537868,-0.47,NaN,NaN,13.660, NaN,NaN,NaN, NaN, NaN
20050117,000355,1125614,33.483885,-122.538008,25.0,13.655,33.016,39.482,1498.30,0.0,3.426,-0.236,13.273, NaN,24.725,   NaN,12.99,1023.83,93.02,13.33,16.7,16.9,10.7,11.2,341.9,342.0,10.4,10.9,NaN, NaN,15.2,17.3,5.5,1105920236,1105920236,1,0.7,000236,000236,320.7,33.483770,-122.537946,-0.34,NaN,NaN,13.658, NaN,NaN,NaN, NaN, NaN
20050117,000425,1125644,33.483891,-122.538098,25.0,13.651,33.020,39.482,1311.73,0.0,3.672,-0.222,13.270, NaN,24.729,   NaN,13.05,1023.79,92.91,13.38,16.1,17.8,10.5,11.0,339.6,341.2,10.3,10.8,NaN, NaN,14.5,249.6,271.4,1105920266,1105920266,1,0.7,000266,000266,324.9,33.483771,-122.538040,-0.40,NaN,NaN,13.654, NaN,NaN,NaN, NaN, NaN
20050117,000455,1125673,33.483913,-122.538183,25.1,13.645,33.016,39.473,354.54,0.0,3.502,-0.232,13.272, NaN,24.727,   NaN,12.99,1023.80,92.73,13.34,9.2,12.3,11.1,11.2,335.3,338.4,10.9,11.0,NaN, NaN,13.6,280.4,268.4,1105920295,1105920295,1,0.8,000295,000295,329.1,33.483790,-122.538126,-0.20,NaN,NaN,13.648, NaN,NaN,NaN, NaN, NaN
20050117,000525,1125703,33.483933,-122.538236,25.0,13.649,33.014,39.475,341.86,0.0,3.464,-0.239,13.271, NaN,24.725,   NaN,12.96,1023.76,92.86,13.33,8.5,10.9,11.2,11.5,337.3,339.8,11.1,11.4,NaN, NaN,14.1,239.7,48.0,1105920326,1105920326,1,0.2,000326,000326,325.6,33.483810,-122.538176,-0.46,NaN,NaN,13.652, NaN,NaN,NaN, NaN, NaN
20050117,000556,1125734,33.483948,-122.538328,25.0,13.654,33.015,39.480,981.46,0.0,3.615,-0.242,13.270, NaN,24.724,   NaN,12.94,1023.78,92.78,13.32,13.2,15.4,11.5,12.0,340.8,342.9,11.4,11.9,NaN, NaN,13.7,284.6,281.6,1105920357,1105920356,1,0.5,000356,000356,322.6,33.483830,-122.538261,-0.50,NaN,NaN,13.657, NaN,NaN,NaN, NaN, NaN
20050117,000625,1125764,33.483986,-122.538423,25.1,13.660,33.013,39.483,1482.25,0.0,3.691,-0.242,13.269, NaN,24.722,   NaN,12.96,1023.79,92.82,13.32,17.2,18.1,11.1,11.7,341.6,342.4,11.0,11.5,NaN, NaN,11.6,268.3,315.3,1105920386,1105920386,1,0.5,000386,000386,321.9,33.483855,-122.538356,-0.48,NaN,NaN,13.663, NaN,NaN,NaN, NaN, NaN
20050117,000655,1125794,33.483996,-122.538535,24.9,13.659,33.018,39.487,1480.41,0.0,3.464,-0.224,13.271, NaN,24.725,   NaN,13.04,1023.81,92.97,13.39,18.2,18.6,10.6,11.0,341.7,342.0,10.3,10.8,NaN, NaN,10.4,337.7,301.3,1105920416,1105920416,1,0.7,000416,000416,323.9,33.483861,-122.538475,-0.50,NaN,NaN,13.662, NaN,NaN,NaN, NaN, NaN
20050117,000725,1125823,33.483998,-122.538616,24.8,13.657,33.018,39.486,728.03,0.0,3.615,-0.231,13.271, NaN,24.726,   NaN,13.05,1023.80,92.88,13.40,14.8,15.9,10.5,10.9,340.4,341.4,10.3,10.7,NaN, NaN,11.5,221.0,270.2,1105920446,1105920446,1,0.5,000445,000446,327.9,33.483866,-122.538568,-0.44,NaN,NaN,13.660, NaN,NaN,NaN, NaN, NaN
20050117,000756,1125855,33.484028,-122.538661,24.8,13.652,33.022,39.486,374.22,0.0,3.577,-0.237,13.272, NaN,24.730,   NaN,12.95,1023.74,92.72,13.34,8.5,11.1,11.1,11.4,338.3,340.8,11.0,11.3,NaN, NaN,11.3,83.4,46.3,1105920476,1105920476,1,0.5,000476,000476,332.4,33.483890,-122.538626,-0.20,NaN,NaN,13.655, NaN,NaN,NaN, NaN, NaN
20050117,000826,1125885,33.484058,-122.538700,25.0,13.643,33.025,39.480,362.61,0.0,3.653,-0.226,13.270, NaN,24.734,   NaN,12.92,1023.78,92.97,13.30,5.0,8.5,11.0,11.2,336.4,339.9,10.9,11.1,NaN, NaN,11.5,288.5,5.7,1105920507,1105920506,1,0.3,000506,000506,329.2,33.483921,-122.538658,0.33,NaN,NaN,13.646, NaN,NaN,NaN, NaN, NaN
20050117,000855,1125913,33.484103,-122.538780,24.9,13.649,33.015,39.475,692.48,0.0,3.634,-0.229,13.270, NaN,24.725,   NaN,12.97,1023.77,93.06,13.35,8.2,11.0,10.4,10.7,336.9,339.8,10.3,10.6,NaN, NaN,10.8,262.4,275.7,1105920536,1105920536,1,0.6,000536,000536,321.7,33.483973,-122.538708,-0.38,NaN,NaN,13.652, NaN,NaN,NaN, NaN, NaN
20050117,000925,1125944,33.484145,-122.538870,24.9,13.652,33.015,39.478,1465.09,0.0,3.898,-0.219,13.268, NaN,24.724,   NaN,13.01,1023.77,92.96,13.36,15.3,16.9,10.4,11.0,338.8,340.4,10.1,10.7,NaN, NaN,11.0,249.9,287.8,1105920566,1105920566,1,0.8,000566,000566,317.1,33.484021,-122.538790,-0.44,NaN,NaN,13.655, NaN,NaN,NaN, NaN, NaN
20050117,000955,1125974,33.484170,-122.538981,25.1,13.654,33.015,39.480,1465.91,0.0,4.011,-0.223,13.270, NaN,24.725,   NaN,13.02,1023.73,92.86,13.37,19.2,20.7,10.3,11.2,339.8,341.2,10.1,11.0,NaN, NaN,11.6,359.8,324.8,1105920596,1105920596,1,0.2,000596,000596,319.9,33.484036,-122.538910,-0.49,NaN,NaN,13.657, NaN,NaN,NaN, NaN, NaN
20050117,001025,1126003,33.484170,-122.539103,24.8,13.657,33.015,39.482,1456.09,0.0,3.747,-0.226,13.270, NaN,24.724,   NaN,12.99,1023.76,92.74,13.34,20.4,21.3,10.6,11.6,341.5,342.2,10.5,11.5,NaN, NaN,11.4,344.3,325.3,1105920626,1105920626,1,0.7,000625,000626,320.6,33.484050,-122.539041,-0.36,NaN,NaN,13.660, NaN,NaN,NaN, NaN, NaN
20050117,001056,1126035,33.484161,-122.539215,25.0,13.657,33.017,39.484,1447.73,0.0,3.766,-0.219,13.268, NaN,24.725,   NaN,13.01,1023.72,92.83,13.34,19.9,20.3,10.8,11.8,342.1,342.4,10.7,11.7,NaN, NaN,11.4,238.1,255.7,1105920656,1105920656,1,0.6,000656,000656,321.1,33.484031,-122.539145,-0.48,NaN,NaN,13.660, NaN,NaN,NaN, NaN, NaN
20050117,001126,1126065,33.484178,-122.539326,24.8,13.657,33.016,39.484,1245.46,0.0,3.540,-0.216,13.270, NaN,24.724,   NaN,13.06,1023.80,92.98,13.38,19.0,18.7,10.2,10.9,343.2,342.9,10.2,10.8,NaN, NaN,11.4,234.0,281.1,1105920686,1105920686,1,0.7,000686,000686,327.4,33.484048,-122.539283,-0.73,NaN,NaN,13.660, NaN,NaN,NaN, NaN, NaN
20050117,001155,1126094,33.484201,-122.539428,24.9,13.657,33.017,39.484,355.99,0.0,3.785,-0.231,13.271, NaN,24.725,   NaN,13.09,1023.79,92.98,13.42,13.7,13.9,9.9,10.2,343.3,343.5,9.7,10.0,NaN, NaN,11.2,252.4,267.4,1105920716,1105920716,1,1.0,000716,000716,333.7,33.484070,-122.539396,-0.43,NaN,NaN,13.660, NaN,NaN,NaN, NaN, NaN
20050117,001225,1126124,33.484233,-122.539473,25.0,13.659,33.015,39.484,557.84,0.0,3.842,0.448,13.271, NaN,24.723,   NaN,13.05,1023.79,92.98,13.43,7.8,8.9,10.1,10.4,341.9,342.9,9.9,10.2,NaN, NaN,10.8,22.5,350.9,1105920746,1105920746,1,0.8,000745,000746,333.1,33.484106,-122.539438,0.50,NaN,NaN,13.662, NaN,NaN,NaN, NaN, NaN
20050117,001256,1126154,33.484281,-122.539525,24.8,13.657,33.018,39.486,379.28,0.0,3.577,-0.225,13.274, NaN,24.726,   NaN,13.05,1023.82,93.17,13.43,7.9,8.9,9.7,10.0,341.2,342.2,9.5,9.8,NaN, NaN,10.9,270.6,308.1,1105920776,1105920776,1,0.7,000776,000776,328.1,33.484150,-122.539478,-0.08,NaN,NaN,13.660, NaN,NaN,NaN, NaN, NaN
20050117,001325,1126183,33.484310,-122.539608,24.8,13.651,33.021,39.483,908.29,0.0,3.672,0.411,13.274, NaN,24.729,   NaN,13.09,1023.80,93.07,13.46,13.1,13.6,9.4,9.9,342.3,342.7,9.2,9.7,NaN, NaN,10.7,280.7,289.7,1105920806,1105920806,1,0.8,000806,000806,322.7,33.484186,-122.539541,-0.41,NaN,NaN,13.654, NaN,NaN,NaN, NaN, NaN
20050117,001356,1126215,33.484320,-122.539685,25.1,13.650,33.019,39.481,1416.66,0.0,3.785,1.412,13.270, NaN,24.729,   NaN,13.07,1023.77,92.95,13.45,19.9,19.8,10.0,10.6,344.3,344.1,9.9,10.4,NaN, NaN,10.2,252.6,262.0,1105920836,1105920836,1,1.1,000836,000836,318.2,33.484198,-122.539613,-0.43,NaN,NaN,13.653, NaN,NaN,NaN, NaN, NaN
20050117,001425,1126243,33.484335,-122.539815,25.0,13.647,33.020,39.479,1415.76,0.0,3.917,-0.223,13.269, NaN,24.730,   NaN,13.09,1023.72,93.03,13.46,22.2,21.9,10.1,10.6,343.5,343.2,10.0,10.5,NaN, NaN,10.3,314.8,301.8,1105920866,1105920866,1,1.2,000866,000866,318.7,33.484218,-122.539738,-0.07,NaN,NaN,13.650, NaN,NaN,NaN, NaN, NaN
20050117,001455,1126274,33.484365,-122.539938,25.0,13.646,33.018,39.476,1251.78,0.0,3.936,-0.222,13.269, NaN,24.729,   NaN,13.08,1023.73,93.03,13.45,19.5,20.0,10.1,10.7,342.6,342.9,9.9,10.5,NaN, NaN,10.3,268.8,281.4,1105920896,1105920896,1,1.3,000896,000896,326.5,33.484236,-122.539890,-0.33,NaN,NaN,13.649, NaN,NaN,NaN, NaN, NaN
20050117,001525,1126304,33.484413,-122.540041,25.2,13.646,33.017,39.475,361.25,0.0,3.993,-0.220,13.267, NaN,24.727,   NaN,13.07,1023.76,93.22,13.45,12.9,13.8,10.0,10.4,341.9,342.7,9.8,10.3,NaN, NaN,10.6,348.2,330.9,1105920926,1105920926,1,0.7,000926,000926,332.7,33.484283,-122.540010,-0.22,NaN,NaN,13.649, NaN,NaN,NaN, NaN, NaN
20050117,001556,1126335,33.484466,-122.540123,24.7,13.646,33.019,39.477,414.31,0.0,4.068,-0.221,13.266, NaN,24.729,   NaN,13.04,1023.75,93.29,13.42,7.0,7.8,9.8,10.3,339.8,340.6,9.5,9.9,NaN, NaN,10.1,321.1,311.7,1105920957,1105920957,1,0.6,000956,000957,332.6,33.484338,-122.540088,-0.01,NaN,NaN,13.649, NaN,NaN,NaN, NaN, NaN
20050117,001626,1126365,33.484521,-122.540193,25.0,13.651,33.014,39.476,310.65,0.0,4.068,-0.219,13.264, NaN,24.724,   NaN,13.03,1023.73,93.43,13.43,6.0,7.0,9.5,10.4,338.9,339.9,9.2,10.0,NaN, NaN,9.7,341.6,325.2,1105920986,1105920986,1,1.0,000986,000986,329.9,33.484388,-122.540143,0.18,NaN,NaN,13.654, NaN,NaN,NaN, NaN, NaN
20050117,001656,1126395,33.484558,-122.540246,25.0,13.653,33.016,39.480,739.46,0.0,3.823,-0.230,13.267, NaN,24.725,   NaN,13.04,1023.76,93.40,13.42,8.9,10.4,9.5,10.4,338.7,340.2,9.2,10.2,NaN, NaN,10.9,32.0,332.4,1105921017,1105921016,1,0.7,001016,001016,324.3,33.484430,-122.540193,-0.30,NaN,NaN,13.656, NaN,NaN,NaN, NaN, NaN
20050117,001725,1126424,33.484583,-122.540355,25.0,13.657,33.018,39.486,1323.99,0.0,3.842,-0.228,13.269, NaN,24.726,   NaN,13.05,1023.76,93.37,13.41,15.4,16.8,9.7,10.5,341.0,342.3,9.6,10.4,NaN, NaN,10.5,247.1,267.8,1105921046,1105921046,1,0.9,001046,001046,318.7,33.484461,-122.540281,-0.30,NaN,NaN,13.660, NaN,NaN,NaN, NaN, NaN
20050117,001755,1126454,33.484625,-122.540473,25.0,13.657,33.017,39.485,1304.52,0.0,4.049,-0.220,13.270, NaN,24.726,   NaN,13.06,1023.69,93.39,13.44,20.1,21.0,9.7,10.6,342.6,343.2,9.6,10.5,NaN, NaN,11.7,237.9,284.9,1105921076,1105921076,1,0.8,001076,001076,320.9,33.484505,-122.540403,-0.28,NaN,NaN,13.660, NaN,NaN,NaN, NaN, NaN
20050117,001825,1126484,33.484675,-122.540605,25.1,13.654,33.021,39.486,1286.11,0.0,4.030,-0.217,13.270, NaN,24.729,   NaN,13.08,1023.70,93.46,13.44,19.9,20.9,9.9,10.7,343.1,344.0,9.6,10.4,NaN, NaN,10.7,256.2,276.7,1105921106,1105921106,1,1.3,001106,001106,325.3,33.484546,-122.540550,-0.46,NaN,NaN,13.657, NaN,NaN,NaN, NaN, NaN
20050117,001856,1126515,33.484731,-122.540736,24.8,13.653,33.020,39.484,1220.63,0.0,3.974,-0.222,13.269, NaN,24.728,   NaN,13.11,1023.72,93.61,13.45,18.5,19.7,9.9,10.5,344.9,346.1,9.6,10.2,NaN, NaN,11.6,259.2,277.1,1105921136,1105921136,1,1.0,001136,001136,326.6,33.484603,-122.540688,-0.43,NaN,NaN,13.656, NaN,NaN,NaN, NaN, NaN
20050117,001925,1126543,33.484801,-122.540868,25.0,13.652,33.017,39.481,653.72,0.0,4.125,-0.230,13.267, NaN,24.727,   NaN,13.06,1023.68,93.42,13.43,15.9,16.9,10.4,10.8,344.3,345.2,10.1,10.5,NaN, NaN,11.1,339.8,345.2,1105921166,1105921166,1,1.1,001166,001166,328.1,33.484668,-122.540816,-0.40,NaN,NaN,13.655, NaN,NaN,NaN, NaN, NaN
20050117,001956,1126575,33.484856,-122.540993,24.8,13.653,33.020,39.484,381.32,0.0,4.125,-0.230,13.270, NaN,24.728,   NaN,13.04,1023.72,93.49,13.40,12.3,14.1,10.7,11.2,342.1,343.8,10.3,10.9,NaN, NaN,11.1,283.3,334.0,1105921197,1105921197,1,0.5,001196,001197,329.7,33.484728,-122.540935,-0.32,NaN,NaN,13.656, NaN,NaN,NaN, NaN, NaN
20050117,002026,1126604,33.484915,-122.541090,24.9,13.653,33.018,39.482,500.46,0.0,3.993,-0.221,13.269, NaN,24.727,   NaN,13.07,1023.69,93.65,13.41,13.0,14.5,10.1,10.8,343.3,344.7,9.8,10.5,NaN, NaN,11.3,299.9,259.2,1105921227,1105921227,1,0.4,001227,001227,325.9,33.484788,-122.541028,-0.37,NaN,NaN,13.656, NaN,NaN,NaN, NaN, NaN
20050117,002056,1126634,33.484953,-122.541188,25.0,13.657,33.017,39.485,1211.66,0.0,4.313,-0.224,13.267, NaN,24.726,   NaN,13.09,1023.71,93.61,13.45,18.5,19.0,9.9,10.5,345.6,345.9,9.6,10.2,NaN, NaN,10.5,224.0,260.0,1105921256,1105921256,1,0.8,001256,001256,319.2,33.484831,-122.541115,-0.36,NaN,NaN,13.660, NaN,NaN,NaN, NaN, NaN
20050117,002125,1126664,33.484993,-122.541316,25.0,13.656,33.018,39.485,1233.98,0.0,4.068,-0.220,13.265, NaN,24.726,   NaN,13.13,1023.72,93.59,13.47,22.6,22.5,9.5,10.1,345.6,345.4,9.3,9.8,NaN, NaN,11.0,33.0,342.4,1105921286,1105921286,1,0.8,001286,001286,320.8,33.484878,-122.541255,-0.49,NaN,NaN,13.659, NaN,NaN,NaN, NaN, NaN
20050117,002155,1126693,33.485051,-122.541460,24.9,13.653,33.021,39.485,1202.47,0.0,4.106,-0.227,13.267, NaN,24.729,   NaN,13.17,1023.71,93.57,13.49,18.5,19.3,9.3,10.0,342.2,342.8,9.0,9.7,NaN, NaN,11.4,335.5,327.9,1105921316,1105921316,1,0.8,001316,001316,326.7,33.484925,-122.541410,-0.38,NaN,NaN,13.656, NaN,NaN,NaN, NaN, NaN
20050117,002225,1126723,33.485106,-122.541593,24.9,13.653,33.019,39.483,444.89,0.0,4.125,-0.222,13.267, NaN,24.727,   NaN,13.10,1023.66,93.46,13.45,13.1,15.1,10.0,10.7,341.4,343.3,9.7,10.4,NaN, NaN,13.2,282.8,291.8,1105921346,1105921346,1,1.1,001346,001346,330.2,33.484990,-122.541540,-0.31,NaN,NaN,13.656, NaN,NaN,NaN, NaN, NaN
20050117,002257,1126756,33.485198,-122.541698,24.9,13.649,33.022,39.483,323.96,0.0,4.219,-0.220,13.266, NaN,24.731,   NaN,13.02,1023.66,93.49,13.40,12.4,14.5,10.4,11.0,343.1,345.2,10.0,10.7,NaN, NaN,13.9,299.4,292.8,1105921377,1105921377,1,0.9,001377,001377,329.1,33.485075,-122.541643,-0.26,NaN,NaN,13.652, NaN,NaN,NaN, NaN, NaN
20050117,002327,1126786,33.485280,-122.541818,25.0,13.651,33.019,39.481,777.42,0.0,4.106,-0.222,13.265, NaN,24.728,   NaN,13.03,1023.70,93.62,13.38,13.5,14.5,10.1,10.7,342.9,343.8,9.7,10.4,NaN, NaN,12.6,268.3,295.0,1105921407,1105921407,1,1.0,001407,001407,324.6,33.485161,-122.541743,-0.23,NaN,NaN,13.654, NaN,NaN,NaN, NaN, NaN
20050117,002356,1126814,33.485353,-122.541941,25.0,13.649,33.021,39.481,1162.17,0.0,4.276,-0.220,13.263, NaN,24.730,   NaN,13.02,1023.65,93.45,13.35,14.5,15.2,10.4,10.9,341.2,341.7,10.0,10.6,NaN, NaN,12.3,301.1,306.6,1105921436,1105921436,1,1.0,001436,001436,323.6,33.485228,-122.541863,-0.30,NaN,NaN,13.652, NaN,NaN,NaN, NaN, NaN
20050117,002426,1126845,33.485428,-122.542065,24.8,13.646,33.022,39.480,1101.11,0.0,4.502,-0.236,13.260, NaN,24.732,   NaN,13.02,1023.65,93.52,13.35,15.2,16.9,10.7,11.5,340.9,342.6,10.3,11.1,NaN, NaN,12.5,248.6,278.5,1105921467,1105921467,1,0.9,001466,001467,324.8,33.485301,-122.541998,-0.31,NaN,NaN,13.649, NaN,NaN,NaN, NaN, NaN
20050117,002455,1126873,33.485483,-122.542188,25.0,13.649,33.012,39.472,1064.59,0.0,4.464,-0.222,13.262, NaN,24.723,   NaN,13.03,1023.65,93.52,13.35,13.9,16.6,10.8,11.7,340.6,343.3,10.5,11.3,NaN, NaN,12.7,13.5,348.3,1105921496,1105921496,1,0.7,001496,001496,325.9,33.485360,-122.542125,-0.41,NaN,NaN,13.652, NaN,NaN,NaN, NaN, NaN
20050117,002527,1126905,33.485535,-122.542323,25.1,13.653,33.017,39.481,1023.08,0.0,4.540,-0.223,13.261, NaN,24.726,   NaN,13.04,1023.61,93.56,13.35,12.5,14.4,10.8,11.3,340.0,341.9,10.5,10.9,NaN, NaN,12.1,319.7,304.8,1105921527,1105921527,1,0.9,001527,001527,327.2,33.485413,-122.542253,-0.20,NaN,NaN,13.656, NaN,NaN,NaN, NaN, NaN
20050117,002556,1126934,33.485581,-122.542430,25.0,13.652,33.020,39.484,1001.53,0.0,4.483,-0.227,13.261, NaN,24.729,   NaN,13.09,1023.69,93.63,13.38,15.3,15.7,10.1,10.7,343.6,343.9,9.7,10.3,NaN, NaN,13.0,290.9,327.7,1105921557,1105921557,1,0.6,001556,001557,326.3,33.485458,-122.542365,-0.51,NaN,NaN,13.655, NaN,NaN,NaN, NaN, NaN
20050117,002626,1126964,33.485651,-122.542548,25.0,13.657,33.017,39.485,1002.01,0.0,4.295,-0.199,13.265, NaN,24.725,   NaN,13.13,1023.71,93.65,13.43,17.4,17.8,9.4,10.3,345.6,345.8,9.1,10.0,NaN, NaN,12.9,31.9,6.7,1105921587,1105921587,1,0.9,001587,001587,325.2,33.485530,-122.542481,-0.20,NaN,NaN,13.660, NaN,NaN,NaN, NaN, NaN
20050117,002656,1126994,33.485716,-122.542698,24.8,13.659,33.018,39.487,994.51,0.0,4.370,-0.175,13.266, NaN,24.725,   NaN,13.12,1023.67,93.57,13.44,16.5,17.6,9.6,10.5,343.4,344.2,9.3,10.2,NaN, NaN,11.8,266.0,279.9,1105921617,1105921616,1,1.7,001616,001616,323.1,33.485600,-122.542621,-0.31,NaN,NaN,13.662, NaN,NaN,NaN, NaN, NaN
20050117,002727,1127025,33.485773,-122.542806,25.0,13.657,33.023,39.492,1006.33,0.0,4.408,-0.166,13.267, NaN,24.730,   NaN,13.11,1023.71,93.63,13.44,18.0,18.7,9.7,10.4,343.0,343.5,9.4,10.1,NaN, NaN,12.0,322.9,292.1,1105921647,1105921647,1,1.1,001647,001647,323.2,33.485653,-122.542746,-0.39,NaN,NaN,13.660, NaN,NaN,NaN, NaN, NaN
20050117,002757,1127055,33.485811,-122.542950,25.1,13.658,33.021,39.491,1016.67,0.0,4.615,-0.235,13.266, NaN,24.728,   NaN,13.08,1023.69,93.56,13.41,18.6,19.5,9.7,10.4,344.2,345.0,9.5,10.2,NaN, NaN,13.0,29.8,304.4,1105921677,1105921677,1,0.9,001677,001677,325.1,33.485695,-122.542883,-0.45,NaN,NaN,13.661, NaN,NaN,NaN, NaN, NaN
20050117,002827,1127086,33.485886,-122.543073,25.0,13.656,33.023,39.491,954.81,0.0,4.615,-0.233,13.266, NaN,24.730,   NaN,13.09,1023.67,93.66,13.41,15.1,16.8,10.0,10.7,342.4,344.1,9.8,10.4,NaN, NaN,13.1,267.3,294.2,1105921707,1105921707,1,0.9,001707,001707,327.7,33.485768,-122.543015,-0.23,NaN,NaN,13.659, NaN,NaN,NaN, NaN, NaN
20050117,002857,1127116,33.485956,-122.543191,24.8,13.654,33.023,39.488,838.22,0.0,4.672,-0.220,13.266, NaN,24.731,   NaN,13.06,1023.69,93.58,13.37,10.8,13.3,10.4,10.8,339.3,341.8,10.0,10.5,NaN, NaN,13.2,351.4,301.6,1105921737,1105921737,1,0.8,001737,001737,326.2,33.485838,-122.543131,-0.51,NaN,NaN,13.657, NaN,NaN,NaN, NaN, NaN
20050117,002927,1127146,33.486016,-122.543306,25.0,13.654,33.019,39.485,965.39,0.0,4.710,-0.224,13.266, NaN,24.728,   NaN,13.05,1023.68,93.66,13.38,13.8,16.1,10.5,11.0,341.7,344.0,10.2,10.7,NaN, NaN,12.1,265.9,280.4,1105921767,1105921767,1,1.3,001767,001767,325.1,33.485898,-122.543241,-0.27,NaN,NaN,13.657, NaN,NaN,NaN, NaN, NaN
20050117,002956,1127174,33.486090,-122.543418,24.9,13.657,33.020,39.488,965.72,0.0,4.578,-0.231,13.267, NaN,24.727,   NaN,13.08,1023.70,93.73,13.40,17.0,18.8,10.3,10.8,344.3,346.1,10.0,10.5,NaN, NaN,12.5,351.4,329.5,1105921797,1105921797,1,1.2,001796,001797,325.0,33.485973,-122.543361,-0.25,NaN,NaN,13.660, NaN,NaN,NaN, NaN, NaN
20050117,003026,1127205,33.486135,-122.543550,25.1,13.658,33.019,39.488,984.80,0.0,4.691,-0.225,13.265, NaN,24.727,   NaN,13.10,1023.72,93.66,13.42,19.0,19.9,9.8,10.5,345.7,346.4,9.5,10.2,NaN, NaN,11.9,258.8,264.6,1105921827,1105921827,1,1.5,001827,001827,323.2,33.486016,-122.543486,-0.47,NaN,NaN,13.661, NaN,NaN,NaN, NaN, NaN
20050117,003056,1127235,33.486198,-122.543656,25.0,13.654,33.022,39.487,1011.17,0.0,4.653,0.080,13.266, NaN,24.730,   NaN,13.14,1023.73,93.78,13.44,20.2,19.5,9.2,10.0,346.6,345.8,8.9,9.6,NaN, NaN,12.3,342.3,316.8,1105921856,1105921856,1,1.0,001856,001856,327.2,33.486071,-122.543605,-0.17,NaN,NaN,13.657, NaN,NaN,NaN, NaN, NaN
20050117,003126,1127264,33.486225,-122.543761,24.9,13.658,33.021,39.491,1045.84,0.0,4.748,-0.229,13.267, NaN,24.728,   NaN,13.19,1023.74,93.74,13.48,16.6,16.6,9.3,9.7,345.1,344.9,9.0,9.4,NaN, NaN,12.8,178.7,227.5,1105921887,1105921887,1,0.5,001886,001887,328.2,33.486096,-122.543711,-0.40,NaN,NaN,13.661, NaN,NaN,NaN, NaN, NaN
20050117,003157,1127296,33.486220,-122.543855,24.9,13.660,33.023,39.495,1075.29,0.0,4.653,0.519,13.265, NaN,24.729,   NaN,13.12,1023.70,93.61,13.48,12.9,14.6,9.8,10.3,342.2,343.7,9.5,10.1,NaN, NaN,12.4,250.0,267.8,1105921917,1105921917,1,0.6,001917,001917,324.9,33.486100,-122.543791,-0.55,NaN,NaN,13.663, NaN,NaN,NaN, NaN, NaN
20050117,003226,1127324,33.486248,-122.543943,25.0,13.665,33.018,39.494,1078.29,0.0,4.729,-0.221,13.268, NaN,24.724,   NaN,13.12,1023.71,93.73,13.46,14.4,15.9,9.5,10.3,342.4,343.8,9.4,10.2,NaN, NaN,13.0,312.0,261.1,1105921947,1105921946,1,0.3,001946,001946,325.4,33.486126,-122.543886,-0.41,NaN,NaN,13.668, NaN,NaN,NaN, NaN, NaN
20050117,003257,1127355,33.486275,-122.544038,24.8,13.665,33.021,39.497,1089.21,0.0,4.842,-0.218,13.270, NaN,24.726,   NaN,13.15,1023.75,93.75,13.46,16.1,16.8,9.4,10.0,343.1,343.8,9.1,9.8,NaN, NaN,12.8,287.3,319.0,1105921977,1105921977,1,0.4,001977,001977,324.1,33.486151,-122.543981,-0.33,NaN,NaN,13.668, NaN,NaN,NaN, NaN, NaN
20050117,003327,1127385,33.486311,-122.544156,25.0,13.668,33.020,39.498,1115.83,0.0,4.804,-0.210,13.269, NaN,24.725,   NaN,13.17,1023.74,93.84,13.50,17.2,17.6,9.4,9.9,344.1,344.4,9.2,9.6,NaN, NaN,12.3,276.7,293.9,1105922008,1105922007,1,0.7,002007,002007,324.6,33.486190,-122.544101,-0.43,NaN,NaN,13.671, NaN,NaN,NaN, NaN, NaN
20050117,003356,1127415,33.486368,-122.544275,25.0,13.666,33.023,39.500,1120.45,0.0,4.880,-0.224,13.270, NaN,24.728,   NaN,13.18,1023.75,93.83,13.51,18.7,19.2,9.5,9.9,345.6,346.1,9.3,9.7,NaN, NaN,12.6,330.3,315.3,1105922037,1105922037,1,0.8,002037,002037,326.2,33.486243,-122.544223,-0.48,NaN,NaN,13.669, NaN,NaN,NaN, NaN, NaN
20050117,003427,1127446,33.486438,-122.544395,25.0,13.663,33.024,39.499,1103.68,0.0,4.653,-0.221,13.272, NaN,24.730,   NaN,13.15,1023.75,93.77,13.50,14.9,15.4,9.7,10.3,343.5,343.8,9.4,9.9,NaN, NaN,12.6,323.1,4.5,1105922067,1105922067,1,1.1,002067,002067,328.1,33.486315,-122.544341,-0.39,NaN,NaN,13.666, NaN,NaN,NaN, NaN, NaN
20050117,003457,1127476,33.486488,-122.544520,25.1,13.661,33.024,39.497,1127.31,0.0,4.672,-0.228,13.269, NaN,24.730,   NaN,13.12,1023.71,93.78,13.46,11.6,12.6,9.9,10.3,340.4,341.4,9.6,10.0,NaN, NaN,12.4,297.2,305.0,1105922097,1105922097,1,0.8,002097,002097,325.1,33.486371,-122.544455,-0.42,NaN,NaN,13.664, NaN,NaN,NaN, NaN, NaN
20050117,003527,1127505,33.486551,-122.544631,25.0,13.655,33.027,39.495,1137.16,0.0,4.748,-0.222,13.269, NaN,24.734,   NaN,13.12,1023.77,93.80,13.46,13.2,15.1,10.2,10.5,340.2,342.1,9.9,10.2,NaN, NaN,13.4,309.9,295.8,1105922127,1105922127,1,0.7,002127,002127,325.1,33.486431,-122.544571,-0.43,NaN,NaN,13.658, NaN,NaN,NaN, NaN, NaN
20050117,003557,1127535,33.486611,-122.544758,25.1,13.652,33.025,39.489,1134.48,0.0,4.766,-0.229,13.268, NaN,24.733,   NaN,13.14,1023.75,93.89,13.48,16.4,17.9,10.0,10.6,342.4,343.8,9.7,10.3,NaN, NaN,13.2,278.5,315.7,1105922157,1105922157,1,0.6,002157,002157,323.9,33.486488,-122.544695,-0.36,NaN,NaN,13.655, NaN,NaN,NaN, NaN, NaN